sat.trackr.live / text

‹ back to catalog

2023-003C

NORAD 55135 · 2023-003C

PAYLOAD ACTIVE UNKNOWN

§ Identity

Operator
Country
PRC
Launch date
2023-01-09
Launch site
JSC
Launch vehicle
Mass (kg)
RCS (m²)

External: N2YO · Heavens-Above · Gunter

§ Orbital elements

Epoch: 2026-05-25T04:19:51.981600Z

Period
92.63 min
Inclination
97.1530°
Eccentricity
0.0003302
Mean motion
15.54496307 rev/d
Perigee alt
401.4 km
Apogee alt
405.9 km
Semi-major
6,781.8 km
B*
3.5251e-4
RAAN
221.7335°
Arg perigee
180.1967°
Mean anomaly
179.9286°
Rev number
18,870

§ Raw data

2023-003C1 55135U 23003C   26145.18046275  .00023142  00000+0  35251-3 0  99982 55135  97.1530 221.7335 0003302 180.1967 179.9286 15.54496307188709

JSON: /api/v1/satellites/55135 · /tle

For live sub-satellite position, see the globe view (requires WebGL).

§ Visibility from observer

Set your observer location to see the next 7 days of passes ≥ 10°. The values pass through the URL so the page stays shareable.

No JS? Fill the form by hand. The geolocation button needs JavaScript.